{"data":{"norad_id":68421,"epoch":"2026-09-20T03:55:53.007744Z","epoch_age_seconds":97759,"freshness":"FRESH","line1":"1 68421U 26067F   26263.16380796  .00002415  00000+0  11730-3 0  9997","line2":"2 68421  97.4625 220.4383 0000862  78.5839 281.5493 15.19403980 26363","mean_motion":15.1940398,"eccentricity":8.62e-5,"inclination_deg":97.4625,"raan_deg":220.4383,"arg_perigee_deg":78.5839,"mean_anomaly_deg":281.5493,"bstar":0.0001173,"rev_number":2636,"period_min":94.774004738358,"perigee_km":507.04720422523,"apogee_km":508.23431231075,"semimajor_km":6885.777758268,"source":"CELESTRAK","updated_at":"2026-09-20T09:00:24.199109Z"}}